Location: Newark
(48.0000°N, 67.0000°E)
Time: 05:10:14
(UTC+00:00)

DUCHIFAT 1 - Pass Details

Date: 11 April 2020
Orbit: 586 x 604 km, 97.9° (Epoch: 27 May)

Event Time Altitude Azimuth Distance (km) Brightness Sun altitude
Rises 20:31:58 0° 17° (NNE) 2,833 ? -31.8°
Reaches altitude 10° 20:34:12 10° 22° (NNE) 1,925 ? -31.7°
Enters shadow 20:36:15 27° 35° (NE) 1,149 ? -31.6°
